This demonstration page uses our WeatherBlox Daily Observations layout. Learn more.

Left ArrowRight Arrow

Hourly Observations for October 13, 2019

Temp ( °F °C ) Dew Point ( °F °C ) Humidity (%) Winds ( mph kmh ) Pressure ( in mb ) Visibility ( mi km ) Precip ( " mm )
12:53 am 00:53 Cloudy 80 26.7 69 20.6 69 69 SE 8 13 29.90 1013 10 16 0.00 0.00
1:53 am 01:53 Cloudy 79 26.1 70 21.1 74 74 SE 8 13 29.88 1012 10 16 0.00 0.00
2:53 am 02:53 Cloudy 79 26.1 70 21.1 74 74 ESE 6 9 29.88 1012 10 16 0.00 0.00
3:53 am 03:53 Cloudy 78 25.6 72 22.2 82 82 E 7 11 29.89 1012 10 16 0.00 0.00
4:53 am 04:53 Cloudy 78 25.6 71 21.7 79 79 ESE 7 11 29.90 1012 10 16 0.00 0.00
5:53 am 05:53 Mostly Clear 77 25 69 20.6 77 77 ESE 7 11 29.90 1013 10 16 0.00 0.00
6:53 am 06:53 Mostly Sunny 77 25 69 20.6 77 77 ESE 7 11 29.92 1013 10 16 0.00 0.00
7:53 am 07:53 Mostly Sunny 82 27.8 69 20.6 65 65 SSE 9 15 29.93 1014 10 16 0.00 0.00
8:53 am 08:53 Mostly Sunny 84 28.9 69 20.6 61 61 SSW 7 11 29.94 1014 10 16 0.00 0.00
9:53 am 09:53 Sunny 85 29.4 70 21.1 61 61 SSW 9 15 29.94 1014 10 16 0.00 0.00
10:53 am 10:53 Sunny 83 28.3 72 22.2 70 70 WSW 9 15 29.93 1014 10 16 0.00 0.00
11:53 am 11:53 Partly Cloudy 86 30 73 22.8 65 65 SW 12 19 29.91 1013 10 16 0.00 0.00
12:53 pm 12:53 Partly Cloudy 86 30 71 21.7 61 61 SSW 9 15 29.89 1012 10 16 0.00 0.00
1:53 pm 13:53 Partly Cloudy 86 30 70 21.1 59 59 SSW 13 20 29.87 1011 10 16 0.00 0.00
2:53 pm 14:53 Partly Cloudy 86 30 70 21.1 59 59 SW 13 20 29.86 1011 10 16 0.00 0.00
3:53 pm 15:53 Mostly Cloudy 86 30 70 21.1 59 59 SW 12 19 29.86 1011 10 16 0.00 0.00
4:53 pm 16:53 Mostly Cloudy 85 29.4 70 21.1 61 61 SSW 10 17 29.87 1012 10 16 0.00 0.00
5:53 pm 17:53 Mostly Cloudy 84 28.9 70 21.1 63 63 SW 8 13 29.89 1012 10 16 0.00 0.00
6:53 pm 18:53 Mostly Cloudy 82 27.8 70 21.1 67 67 W 5 7 29.91 1013 10 16 0.00 0.00
7:53 pm 19:53 Mostly Cloudy 82 27.8 70 21.1 67 67 NW 7 11 29.92 1013 10 16 0.00 0.00
8:53 pm 20:53 Mostly Cloudy 80 26.7 69 20.6 69 69 N 12 19 29.93 1014 10 16 0.00 0.00
9:53 pm 21:53 Partly Cloudy 79 26.1 67 19.4 67 67 NE 6 9 29.93 1014 10 16 0.00 0.00
10:53 pm 22:53 Mostly Clear 79 26.1 66 18.9 65 65 ENE 5 7 29.93 1014 10 16 0.00 0.00
11:53 pm 23:53 Cloudy 79 26.1 68 20 69 69 SSE 6 9 29.93 1014 10 16 0.00 0.00

Powered by Vaisala Xweather